Time,TemperatureF,DewpointF,PressureIn,WindDirection,WindDirectionDegrees,WindSpeedMPH,WindSpeedGustMPH,Humidity,HourlyPrecipIn,Conditions,Clouds,dailyrainin,SoftwareType,DateUTC
2013-04-08 00:01:00,44.6,43.7,29.82,NNE,25,13.0,30.0,48,0.00,,,0.00,meteohub,2013-04-08 07:01:00,
2013-04-08 00:07:00,44.6,43.7,29.82,NNW,335,9.0,30.0,48,0.00,,,0.00,meteohub,2013-04-08 07:07:00,
2013-04-08 00:12:00,44.4,43.7,29.81,West,266,15.0,28.0,48,0.00,,,0.00,meteohub,2013-04-08 07:12:00,
2013-04-08 00:17:00,44.4,43.5,29.81,NE,36,15.0,28.0,48,0.00,,,0.00,meteohub,2013-04-08 07:17:00,
2013-04-08 00:22:00,44.2,43.5,29.81,WNW,283,14.0,31.0,48,0.00,,,0.00,meteohub,2013-04-08 07:22:00,
2013-04-08 00:27:00,44.1,43.3,29.81,West,280,21.0,31.0,48,0.00,,,0.00,meteohub,2013-04-08 07:27:00,
2013-04-08 00:32:00,43.9,43.3,29.81,NW,308,19.0,31.0,48,0.00,,,0.00,meteohub,2013-04-08 07:32:00,
2013-04-08 00:37:00,43.9,43.3,29.81,WNW,298,19.0,29.0,48,0.00,,,0.00,meteohub,2013-04-08 07:37:00,
2013-04-08 00:42:00,43.9,43.2,29.81,WSW,252,15.0,28.0,48,0.00,,,0.00,meteohub,2013-04-08 07:42:00,
2013-04-08 00:47:00,44.1,43.2,29.81,WSW,243,26.0,31.0,48,0.00,,,0.00,meteohub,2013-04-08 07:47:00,
2013-04-08 00:52:00,44.2,43.2,29.80,NNW,346,12.0,35.0,48,0.00,,,0.00,meteohub,2013-04-08 07:52:00,
2013-04-08 00:57:00,44.1,43.0,29.80,NNW,335,16.0,35.0,48,0.00,,,0.00,meteohub,2013-04-08 07:57:00,
2013-04-08 01:03:00,44.1,43.0,29.80,SW,214,18.0,35.0,48,0.00,,,0.00,meteohub,2013-04-08 08:03:00,
2013-04-08 01:08:00,43.9,43.0,29.79,SW,235,30.0,35.0,48,0.00,,,0.00,meteohub,2013-04-08 08:08:00,
2013-04-08 01:13:00,43.7,42.8,29.80,East,79,17.0,33.0,48,0.00,,,0.00,meteohub,2013-04-08 08:13:00,
2013-04-08 01:18:00,43.5,42.8,29.80,SW,226,15.0,36.0,48,0.00,,,0.00,meteohub,2013-04-08 08:18:00,
2013-04-08 01:24:00,43.5,42.8,29.79,North,8,14.0,36.0,48,0.00,,,0.00,meteohub,2013-04-08 08:24:00,
2013-04-08 01:30:00,43.2,42.6,29.79,ENE,64,14.0,32.0,48,0.00,,,0.00,meteohub,2013-04-08 08:30:00,
2013-04-08 01:35:00,43.0,42.4,29.78,NNE,27,14.0,30.0,48,0.00,,,0.00,meteohub,2013-04-08 08:35:00,
2013-04-08 01:40:00,43.0,42.4,29.78,SW,219,32.0,34.0,48,0.00,,,0.00,meteohub,2013-04-08 08:40:00,
2013-04-08 01:45:00,42.8,42.4,29.78,NW,307,15.0,34.0,48,0.00,,,0.00,meteohub,2013-04-08 08:45:00,
2013-04-08 01:52:00,42.3,42.4,29.78,WSW,253,16.0,34.0,48,0.00,,,0.00,meteohub,2013-04-08 08:52:00,
2013-04-08 01:57:00,42.3,42.3,29.78,WSW,255,23.0,32.0,48,0.00,,,0.00,meteohub,2013-04-08 08:57:00,
2013-04-08 02:02:00,42.1,42.3,29.77,NW,321,15.0,30.0,48,0.01,,,0.01,meteohub,2013-04-08 09:02:00,
2013-04-08 02:08:00,42.1,42.3,29.76,SSW,210,23.0,30.0,48,0.01,,,0.01,meteohub,2013-04-08 09:08:00,
2013-04-08 02:13:00,42.1,42.1,29.76,NNE,33,11.0,32.0,48,0.01,,,0.01,meteohub,2013-04-08 09:13:00,
2013-04-08 02:18:00,42.1,42.1,29.76,NNE,29,20.0,32.0,48,0.01,,,0.01,meteohub,2013-04-08 09:18:00,
2013-04-08 02:23:00,41.9,42.1,29.76,NE,49,13.0,33.0,48,0.01,,,0.01,meteohub,2013-04-08 09:23:00,
2013-04-08 02:29:00,41.9,41.9,29.75,WSW,245,30.0,35.0,48,0.01,,,0.01,meteohub,2013-04-08 09:29:00,
2013-04-08 02:34:00,41.9,41.9,29.75,North,1,18.0,35.0,48,0.01,,,0.01,meteohub,2013-04-08 09:34:00,
2013-04-08 02:40:00,41.9,41.9,29.75,West,278,25.0,37.0,48,0.01,,,0.01,meteohub,2013-04-08 09:40:00,
2013-04-08 02:45:00,41.9,41.9,29.75,SW,233,17.0,37.0,48,0.01,,,0.01,meteohub,2013-04-08 09:45:00,
2013-04-08 02:50:00,41.9,41.7,29.74,NNW,340,20.0,34.0,48,0.01,,,0.01,meteohub,2013-04-08 09:50:00,
2013-04-08 02:55:00,41.7,41.7,29.74,North,350,12.0,34.0,48,0.00,,,0.01,meteohub,2013-04-08 09:55:00,
2013-04-08 03:01:00,41.7,41.7,29.74,NE,49,14.0,34.0,48,0.00,,,0.01,meteohub,2013-04-08 10:01:00,
2013-04-08 03:06:00,41.7,41.5,29.74,SW,233,17.0,35.0,48,0.00,,,0.01,meteohub,2013-04-08 10:06:00,
2013-04-08 03:12:00,41.5,41.5,29.73,West,270,15.0,35.0,48,0.00,,,0.01,meteohub,2013-04-08 10:12:00,
2013-04-08 03:17:00,41.5,41.5,29.72,NW,306,26.0,35.0,48,0.01,,,0.02,meteohub,2013-04-08 10:17:00,
2013-04-08 03:22:00,41.5,41.5,29.72,WSW,240,25.0,35.0,48,0.01,,,0.02,meteohub,2013-04-08 10:22:00,
2013-04-08 03:27:00,41.5,41.4,29.71,WNW,284,26.0,35.0,48,0.01,,,0.02,meteohub,2013-04-08 10:27:00,
2013-04-08 03:32:00,41.4,41.4,29.71,WSW,250,26.0,35.0,48,0.01,,,0.02,meteohub,2013-04-08 10:32:00,
2013-04-08 03:37:00,41.4,41.4,29.71,West,274,21.0,39.0,48,0.01,,,0.02,meteohub,2013-04-08 10:37:00,
2013-04-08 03:42:00,41.2,41.2,29.71,NE,50,21.0,39.0,48,0.01,,,0.02,meteohub,2013-04-08 10:42:00,
2013-04-08 03:47:00,41.0,41.2,29.70,NW,314,17.0,39.0,48,0.01,,,0.02,meteohub,2013-04-08 10:47:00,
2013-04-08 03:52:00,40.8,41.2,29.71,SW,235,21.0,33.0,48,0.01,,,0.02,meteohub,2013-04-08 10:52:00,
2013-04-08 03:58:00,40.8,41.2,29.71,NE,34,23.0,33.0,48,0.01,,,0.02,meteohub,2013-04-08 10:58:00,
2013-04-08 04:03:00,40.8,41.0,29.71,West,262,32.0,37.0,48,0.01,,,0.02,meteohub,2013-04-08 11:03:00,
2013-04-08 04:08:00,40.8,40.8,29.70,WNW,300,21.0,37.0,48,0.01,,,0.02,meteohub,2013-04-08 11:08:00,
2013-04-08 04:13:00,40.8,40.8,29.71,West,269,16.0,37.0,48,0.02,,,0.03,meteohub,2013-04-08 11:13:00,
2013-04-08 04:19:00,40.8,41.4,29.70,North,358,17.0,37.0,49,0.01,,,0.03,meteohub,2013-04-08 11:19:00,
2013-04-08 04:24:00,40.8,41.2,29.69,SW,228,25.0,42.0,49,0.01,,,0.03,meteohub,2013-04-08 11:24:00,
2013-04-08 04:29:00,40.8,41.2,29.68,West,271,16.0,42.0,49,0.01,,,0.03,meteohub,2013-04-08 11:29:00,
2013-04-08 04:35:00,40.8,41.2,29.68,NNE,12,16.0,42.0,49,0.01,,,0.03,meteohub,2013-04-08 11:35:00,
2013-04-08 04:40:00,40.8,41.2,29.66,ENE,60,22.0,36.0,49,0.01,,,0.03,meteohub,2013-04-08 11:40:00,
2013-04-08 04:45:00,40.6,41.0,29.66,SW,221,18.0,37.0,49,0.01,,,0.03,meteohub,2013-04-08 11:45:00,
2013-04-08 04:50:00,40.6,41.0,29.65,ENE,63,32.0,37.0,49,0.01,,,0.03,meteohub,2013-04-08 11:50:00,
2013-04-08 04:55:00,40.5,41.0,29.65,North,0,29.0,38.0,49,0.02,,,0.04,meteohub,2013-04-08 11:55:00,
2013-04-08 05:01:00,40.5,40.8,29.65,North,356,28.0,38.0,49,0.02,,,0.04,meteohub,2013-04-08 12:01:00,
2013-04-08 05:06:00,40.5,40.8,29.65,West,266,34.0,46.0,49,0.01,,,0.04,meteohub,2013-04-08 12:06:00,
2013-04-08 05:12:00,40.5,40.8,29.65,ENE,63,20.0,46.0,49,0.01,,,0.04,meteohub,2013-04-08 12:12:00,
2013-04-08 05:17:00,40.6,40.8,29.65,NE,44,20.0,46.0,49,0.01,,,0.04,meteohub,2013-04-08 12:17:00,
2013-04-08 05:22:00,40.6,40.6,29.66,South,181,18.0,46.0,49,0.01,,,0.04,meteohub,2013-04-08 12:22:00,
2013-04-08 05:27:00,40.6,40.5,29.66,WSW,252,37.0,46.0,49,0.01,,,0.04,meteohub,2013-04-08 12:27:00,
2013-04-08 05:32:00,40.6,40.5,29.65,North,11,30.0,45.0,49,0.02,,,0.05,meteohub,2013-04-08 12:32:00,
2013-04-08 05:37:00,40.6,40.5,29.65,West,276,23.0,44.0,49,0.02,,,0.05,meteohub,2013-04-08 12:37:00,
2013-04-08 05:43:00,40.6,40.5,29.65,NNW,328,12.0,45.0,49,0.02,,,0.05,meteohub,2013-04-08 12:43:00,
2013-04-08 05:48:00,40.6,40.3,29.64,NNW,341,41.0,46.0,49,0.02,,,0.05,meteohub,2013-04-08 12:48:00,
2013-04-08 05:53:00,40.6,40.3,29.64,SSW,201,30.0,46.0,49,0.03,,,0.06,meteohub,2013-04-08 12:53:00,
2013-04-08 05:58:00,40.6,40.3,29.65,SW,231,34.0,46.0,49,0.02,,,0.06,meteohub,2013-04-08 12:58:00,
2013-04-08 06:05:00,40.8,40.3,29.64,WSW,255,13.0,51.0,49,0.02,,,0.06,meteohub,2013-04-08 13:05:00,
2013-04-08 06:10:00,40.8,40.3,29.64,East,82,30.0,51.0,49,0.02,,,0.06,meteohub,2013-04-08 13:10:00,
2013-04-08 06:16:00,40.8,40.3,29.65,North,354,23.0,51.0,49,0.03,,,0.07,meteohub,2013-04-08 13:16:00,
2013-04-08 06:21:00,40.8,40.3,29.66,South,187,15.0,50.0,49,0.03,,,0.07,meteohub,2013-04-08 13:21:00,
2013-04-08 06:26:00,40.6,40.1,29.65,ENE,63,31.0,50.0,49,0.02,,,0.07,meteohub,2013-04-08 13:26:00,
2013-04-08 06:31:00,40.6,40.1,29.68,WNW,297,32.0,44.0,49,0.02,,,0.07,meteohub,2013-04-08 13:31:00,
2013-04-08 06:37:00,40.5,40.1,29.67,WSW,246,26.0,45.0,49,0.02,,,0.07,meteohub,2013-04-08 13:37:00,
2013-04-08 06:42:00,40.5,39.9,29.66,NW,326,40.0,45.0,49,0.02,,,0.07,meteohub,2013-04-08 13:42:00,
2013-04-08 06:47:00,40.3,39.9,29.65,WSW,243,25.0,54.0,49,0.03,,,0.08,meteohub,2013-04-08 13:47:00,
2013-04-08 06:53:00,40.1,39.9,29.66,NNW,342,33.0,54.0,49,0.02,,,0.08,meteohub,2013-04-08 13:53:00,
2013-04-08 06:58:00,40.1,39.7,29.66,SW,217,24.0,54.0,49,0.02,,,0.08,meteohub,2013-04-08 13:58:00,
2013-04-08 07:03:00,39.9,39.7,29.65,North,8,36.0,48.0,49,0.02,,,0.08,meteohub,2013-04-08 14:03:00,
2013-04-08 07:08:00,39.7,39.7,29.65,West,266,24.0,48.0,49,0.02,,,0.08,meteohub,2013-04-08 14:08:00,
2013-04-08 07:13:00,39.7,40.5,29.65,ESE,106,30.0,48.0,50,0.02,,,0.08,meteohub,2013-04-08 14:13:00,
2013-04-08 07:20:00,39.7,40.6,29.66,West,271,28.0,44.0,50,0.02,,,0.09,meteohub,2013-04-08 14:20:00,
2013-04-08 07:25:00,39.7,40.6,29.65,SW,225,29.0,44.0,50,0.02,,,0.09,meteohub,2013-04-08 14:25:00,
2013-04-08 07:30:00,39.6,40.8,29.63,East,98,31.0,55.0,50,0.02,,,0.09,meteohub,2013-04-08 14:30:00,
2013-04-08 07:36:00,39.4,41.5,29.64,WSW,249,33.0,55.0,51,0.02,,,0.09,meteohub,2013-04-08 14:36:00,
2013-04-08 07:41:00,39.4,41.0,29.64,ENE,78,26.0,50.0,50,0.01,,,0.09,meteohub,2013-04-08 14:41:00,
2013-04-08 07:46:00,39.4,41.0,29.63,South,187,35.0,50.0,50,0.02,,,0.10,meteohub,2013-04-08 14:46:00,
2013-04-08 07:51:00,39.4,41.2,29.63,ENE,78,38.0,53.0,50,0.02,,,0.10,meteohub,2013-04-08 14:51:00,
2013-04-08 07:57:00,39.2,41.0,29.62,NW,317,48.0,53.0,50,0.02,,,0.10,meteohub,2013-04-08 14:57:00,
2013-04-08 08:02:00,39.0,41.0,29.63,WSW,246,28.0,53.0,50,0.02,,,0.10,meteohub,2013-04-08 15:02:00,
2013-04-08 08:07:00,39.0,41.0,29.63,South,181,24.0,48.0,50,0.02,,,0.10,meteohub,2013-04-08 15:07:00,
2013-04-08 08:12:00,38.8,41.0,29.63,NW,308,36.0,54.0,50,0.02,,,0.11,meteohub,2013-04-08 15:12:00,
2013-04-08 08:17:00,38.5,41.0,29.63,SSW,200,26.0,54.0,50,0.02,,,0.11,meteohub,2013-04-08 15:17:00,
2013-04-08 08:22:00,38.3,40.8,29.65,NW,323,39.0,51.0,50,0.02,,,0.11,meteohub,2013-04-08 15:22:00,
2013-04-08 08:27:00,38.1,40.8,29.63,ESE,117,28.0,51.0,50,0.02,,,0.11,meteohub,2013-04-08 15:27:00,
2013-04-08 08:33:00,38.3,40.8,29.65,NNW,330,18.0,59.0,50,0.03,,,0.11,meteohub,2013-04-08 15:33:00,
2013-04-08 08:38:00,38.5,40.8,29.65,NNW,342,32.0,59.0,50,0.03,,,0.12,meteohub,2013-04-08 15:38:00,
2013-04-08 08:43:00,38.7,40.8,29.64,NNE,33,30.0,59.0,50,0.03,,,0.12,meteohub,2013-04-08 15:43:00,
2013-04-08 08:48:00,38.5,40.8,29.66,West,267,28.0,48.0,50,0.02,,,0.12,meteohub,2013-04-08 15:48:00,
2013-04-08 08:53:00,37.9,40.3,29.65,North,359,22.0,48.0,49,0.02,,,0.12,meteohub,2013-04-08 15:53:00,
2013-04-08 08:59:00,38.1,40.3,29.67,SW,218,35.0,48.0,49,0.02,,,0.12,meteohub,2013-04-08 15:59:00,
2013-04-08 09:05:00,38.1,40.3,29.68,SE,138,24.0,46.0,49,0.01,,,0.12,meteohub,2013-04-08 16:05:00,
2013-04-08 09:10:00,38.1,40.3,29.67,ENE,75,29.0,46.0,49,0.01,,,0.12,meteohub,2013-04-08 16:10:00,
2013-04-08 09:15:00,38.5,40.1,29.67,WSW,242,45.0,45.0,49,0.01,,,0.12,meteohub,2013-04-08 16:15:00,
2013-04-08 09:21:00,38.5,40.1,29.66,NNE,16,19.0,51.0,49,0.01,,,0.12,meteohub,2013-04-08 16:21:00,
2013-04-08 09:26:00,38.7,40.1,29.66,NW,309,41.0,54.0,49,0.02,,,0.13,meteohub,2013-04-08 16:26:00,
2013-04-08 09:32:00,38.5,40.1,29.67,West,271,38.0,54.0,49,0.01,,,0.13,meteohub,2013-04-08 16:32:00,
2013-04-08 09:41:00,38.5,39.9,29.66,West,278,22.0,58.0,49,0.01,,,0.13,meteohub,2013-04-08 16:41:00,
2013-04-08 09:46:00,38.3,39.7,29.66,WNW,298,16.0,58.0,49,0.01,,,0.13,meteohub,2013-04-08 16:46:00,
2013-04-08 09:51:00,38.3,39.7,29.65,NE,56,29.0,48.0,49,0.01,,,0.13,meteohub,2013-04-08 16:51:00,
2013-04-08 09:57:00,38.5,39.7,29.64,West,267,36.0,48.0,49,0.01,,,0.13,meteohub,2013-04-08 16:57:00,
2013-04-08 10:02:00,38.5,39.7,29.66,WNW,283,47.0,51.0,49,0.01,,,0.13,meteohub,2013-04-08 17:02:00,
2013-04-08 10:08:00,38.5,39.9,29.65,NNE,19,22.0,64.0,49,0.01,,,0.13,meteohub,2013-04-08 17:08:00,
2013-04-08 10:13:00,38.1,40.6,29.66,SSW,198,32.0,64.0,50,0.01,,,0.13,meteohub,2013-04-08 17:13:00,
2013-04-08 10:19:00,37.9,40.6,29.65,ESE,109,26.0,58.0,50,0.01,,,0.13,meteohub,2013-04-08 17:19:00,
2013-04-08 10:24:00,37.6,40.8,29.65,SE,140,24.0,58.0,50,0.00,,,0.13,meteohub,2013-04-08 17:24:00,
2013-04-08 10:29:00,37.6,41.0,29.66,ENE,68,27.0,58.0,50,0.00,,,0.13,meteohub,2013-04-08 17:29:00,
2013-04-08 10:34:00,37.6,41.0,29.66,WNW,288,28.0,51.0,50,0.00,,,0.13,meteohub,2013-04-08 17:34:00,
2013-04-08 10:39:00,37.4,41.0,29.67,SW,215,40.0,53.0,50,0.00,,,0.13,meteohub,2013-04-08 17:39:00,
2013-04-08 10:45:00,37.6,41.0,29.68,West,262,27.0,53.0,50,0.00,,,0.13,meteohub,2013-04-08 17:45:00,
2013-04-08 10:50:00,37.6,41.0,29.67,SSW,207,30.0,53.0,50,0.00,,,0.13,meteohub,2013-04-08 17:50:00,
2013-04-08 10:55:00,37.4,41.0,29.68,ENE,70,25.0,48.0,50,0.00,,,0.13,meteohub,2013-04-08 17:55:00,
2013-04-08 11:00:00,37.6,41.0,29.67,WSW,240,40.0,49.0,50,0.00,,,0.13,meteohub,2013-04-08 18:00:00,
2013-04-08 11:05:00,37.2,41.0,29.71,SW,228,29.0,49.0,50,0.00,,,0.13,meteohub,2013-04-08 18:05:00,
2013-04-08 11:11:00,37.2,40.3,29.70,WNW,285,32.0,50.0,49,0.00,,,0.13,meteohub,2013-04-08 18:11:00,
2013-04-08 11:16:00,37.0,40.3,29.70,NW,312,18.0,50.0,49,0.00,,,0.13,meteohub,2013-04-08 18:16:00,
2013-04-08 11:21:00,36.9,40.3,29.69,NNE,33,33.0,50.0,49,0.00,,,0.13,meteohub,2013-04-08 18:21:00,
2013-04-08 11:26:00,36.7,40.3,29.70,North,0,22.0,46.0,49,0.00,,,0.13,meteohub,2013-04-08 18:26:00,
2013-04-08 11:31:00,36.7,40.3,29.70,WSW,257,13.0,46.0,49,0.00,,,0.13,meteohub,2013-04-08 18:31:00,
2013-04-08 11:37:00,36.9,40.3,29.70,NW,321,33.0,44.0,49,0.00,,,0.13,meteohub,2013-04-08 18:37:00,
2013-04-08 11:42:00,36.7,40.3,29.70,NE,46,24.0,50.0,49,0.00,,,0.13,meteohub,2013-04-08 18:42:00,
2013-04-08 11:47:00,36.3,40.3,29.70,WSW,240,26.0,50.0,49,0.00,,,0.13,meteohub,2013-04-08 18:47:00,
2013-04-08 11:53:00,36.1,40.3,29.70,WSW,240,44.0,58.0,49,0.00,,,0.13,meteohub,2013-04-08 18:53:00,
2013-04-08 11:58:00,35.8,40.3,29.70,West,269,28.0,58.0,49,0.00,,,0.13,meteohub,2013-04-08 18:58:00,
2013-04-08 12:04:00,35.8,40.1,29.68,West,263,16.0,51.0,49,0.00,,,0.13,meteohub,2013-04-08 19:04:00,
2013-04-08 12:09:00,35.8,40.1,29.69,NW,318,31.0,51.0,49,0.00,,,0.13,meteohub,2013-04-08 19:09:00,
2013-04-08 12:14:00,35.6,40.1,29.69,West,271,39.0,51.0,49,0.00,,,0.13,meteohub,2013-04-08 19:14:00,
2013-04-08 12:20:00,35.2,40.1,29.67,NNW,342,32.0,44.0,49,0.00,,,0.13,meteohub,2013-04-08 19:20:00,
2013-04-08 12:25:00,35.2,39.4,29.67,SW,235,23.0,46.0,48,0.01,,,0.14,meteohub,2013-04-08 19:25:00,
2013-04-08 12:30:00,35.4,39.2,29.67,West,280,27.0,46.0,48,0.01,,,0.14,meteohub,2013-04-08 19:30:00,
2013-04-08 12:35:00,35.1,39.2,29.68,East,93,38.0,48.0,48,0.01,,,0.14,meteohub,2013-04-08 19:35:00,
2013-04-08 12:40:00,35.1,39.2,29.67,North,6,24.0,48.0,48,0.01,,,0.14,meteohub,2013-04-08 19:40:00,
2013-04-08 12:46:00,34.9,39.2,29.66,WNW,283,27.0,48.0,48,0.01,,,0.14,meteohub,2013-04-08 19:46:00,
2013-04-08 12:51:00,34.3,39.2,29.67,NNE,29,19.0,59.0,48,0.01,,,0.14,meteohub,2013-04-08 19:51:00,
2013-04-08 12:56:00,34.3,39.2,29.66,NNW,330,22.0,59.0,48,0.01,,,0.14,meteohub,2013-04-08 19:56:00,
2013-04-08 13:01:00,34.3,39.4,29.66,NW,316,20.0,54.0,48,0.01,,,0.14,meteohub,2013-04-08 20:01:00,
2013-04-08 13:07:00,34.3,39.6,29.66,North,4,32.0,51.0,48,0.01,,,0.14,meteohub,2013-04-08 20:07:00,
2013-04-08 13:12:00,34.2,39.7,29.65,SW,219,34.0,51.0,48,0.01,,,0.14,meteohub,2013-04-08 20:12:00,
2013-04-08 13:17:00,34.5,39.7,29.65,NE,54,35.0,51.0,48,0.01,,,0.14,meteohub,2013-04-08 20:17:00,
2013-04-08 13:22:00,34.5,40.3,29.65,NNE,16,26.0,51.0,49,0.00,,,0.14,meteohub,2013-04-08 20:22:00,
2013-04-08 13:27:00,34.5,40.5,29.65,NW,322,41.0,46.0,49,0.00,,,0.14,meteohub,2013-04-08 20:27:00,
2013-04-08 13:32:00,34.5,39.9,29.64,SSW,208,36.0,45.0,48,0.00,,,0.14,meteohub,2013-04-08 20:32:00,
2013-04-08 13:37:00,34.3,39.9,29.65,WSW,256,42.0,46.0,48,0.00,,,0.14,meteohub,2013-04-08 20:37:00,
2013-04-08 13:42:00,34.3,39.9,29.65,NW,326,29.0,50.0,48,0.00,,,0.14,meteohub,2013-04-08 20:42:00,
2013-04-08 13:47:00,34.5,39.9,29.66,NNE,20,21.0,50.0,48,0.00,,,0.14,meteohub,2013-04-08 20:47:00,
2013-04-08 13:52:00,34.2,39.9,29.65,SSE,162,44.0,48.0,48,0.00,,,0.14,meteohub,2013-04-08 20:52:00,
2013-04-08 13:57:00,34.2,39.9,29.64,South,171,22.0,48.0,48,0.00,,,0.14,meteohub,2013-04-08 20:57:00,
2013-04-08 14:02:00,34.2,39.9,29.65,West,274,30.0,48.0,48,0.00,,,0.14,meteohub,2013-04-08 21:02:00,
2013-04-08 14:08:00,34.5,39.9,29.66,ENE,72,19.0,52.0,48,0.00,,,0.14,meteohub,2013-04-08 21:08:00,
2013-04-08 14:13:00,34.3,39.9,29.65,East,89,29.0,52.0,48,0.00,,,0.14,meteohub,2013-04-08 21:13:00,
2013-04-08 14:18:00,34.2,39.9,29.66,SE,124,34.0,52.0,48,0.00,,,0.14,meteohub,2013-04-08 21:18:00,
2013-04-08 14:23:00,34.3,39.7,29.66,NNE,27,38.0,50.0,48,0.00,,,0.14,meteohub,2013-04-08 21:23:00,
2013-04-08 14:29:00,34.2,39.2,29.67,ENE,70,26.0,50.0,47,0.00,,,0.14,meteohub,2013-04-08 21:29:00,
2013-04-08 14:35:00,34.3,39.2,29.67,SSE,160,25.0,55.0,47,0.00,,,0.14,meteohub,2013-04-08 21:35:00,
2013-04-08 14:40:00,34.2,39.0,29.66,SSW,208,28.0,55.0,47,0.00,,,0.14,meteohub,2013-04-08 21:40:00,
2013-04-08 14:45:00,34.0,39.0,29.64,NW,312,33.0,55.0,47,0.00,,,0.14,meteohub,2013-04-08 21:45:00,
2013-04-08 14:50:00,34.0,39.0,29.64,West,263,31.0,57.0,47,0.00,,,0.14,meteohub,2013-04-08 21:50:00,
2013-04-08 14:55:00,33.8,38.8,29.66,SW,231,26.0,60.0,47,0.00,,,0.14,meteohub,2013-04-08 21:55:00,
2013-04-08 15:01:00,33.6,38.7,29.67,NNE,12,30.0,60.0,47,0.00,,,0.14,meteohub,2013-04-08 22:01:00,
2013-04-08 15:06:00,33.6,38.7,29.67,NE,44,28.0,60.0,47,0.00,,,0.14,meteohub,2013-04-08 22:06:00,
2013-04-08 15:11:00,34.0,38.7,29.66,South,174,20.0,52.0,47,0.00,,,0.14,meteohub,2013-04-08 22:11:00,
2013-04-08 15:16:00,33.8,38.7,29.66,WNW,283,29.0,55.0,47,0.00,,,0.14,meteohub,2013-04-08 22:16:00,
2013-04-08 15:22:00,33.6,38.7,29.68,NNE,24,18.0,55.0,47,0.01,,,0.14,meteohub,2013-04-08 22:22:00,
2013-04-08 15:27:00,33.4,38.8,29.66,NNE,16,24.0,55.0,47,0.01,,,0.15,meteohub,2013-04-08 22:27:00,
2013-04-08 15:32:00,33.4,39.0,29.68,North,357,29.0,63.0,47,0.01,,,0.15,meteohub,2013-04-08 22:32:00,
2013-04-08 15:37:00,33.6,39.2,29.68,NNE,33,26.0,63.0,47,0.01,,,0.15,meteohub,2013-04-08 22:37:00,
2013-04-08 15:42:00,33.6,39.2,29.67,North,0,21.0,63.0,47,0.01,,,0.15,meteohub,2013-04-08 22:42:00,
2013-04-08 15:48:00,33.6,39.4,29.68,NNE,29,24.0,46.0,47,0.01,,,0.15,meteohub,2013-04-08 22:48:00,
2013-04-08 15:53:00,33.6,39.4,29.69,North,8,22.0,41.0,47,0.01,,,0.15,meteohub,2013-04-08 22:53:00,
2013-04-08 15:58:00,33.8,39.4,29.69,NNW,336,24.0,46.0,47,0.01,,,0.15,meteohub,2013-04-08 22:58:00,
2013-04-08 16:04:00,34.0,39.4,29.70,North,358,24.0,53.0,47,0.01,,,0.15,meteohub,2013-04-08 23:04:00,
2013-04-08 16:09:00,33.8,39.4,29.71,WNW,290,25.0,53.0,47,0.01,,,0.15,meteohub,2013-04-08 23:09:00,
2013-04-08 16:14:00,33.6,39.4,29.73,WNW,298,25.0,53.0,47,0.01,,,0.15,meteohub,2013-04-08 23:14:00,
2013-04-08 16:19:00,33.6,39.4,29.73,ENE,74,18.0,43.0,47,0.01,,,0.15,meteohub,2013-04-08 23:19:00,
2013-04-08 16:24:00,33.6,39.4,29.75,WSW,246,25.0,45.0,47,0.00,,,0.15,meteohub,2013-04-08 23:24:00,
2013-04-08 16:30:00,33.6,39.2,29.74,ENE,65,15.0,40.0,47,0.00,,,0.15,meteohub,2013-04-08 23:30:00,
2013-04-08 16:35:00,34.2,39.2,29.73,North,353,23.0,40.0,47,0.00,,,0.15,meteohub,2013-04-08 23:35:00,
2013-04-08 16:40:00,34.3,39.2,29.74,WNW,284,22.0,40.0,47,0.00,,,0.15,meteohub,2013-04-08 23:40:00,
2013-04-08 16:45:00,34.3,39.2,29.74,West,273,22.0,35.0,47,0.00,,,0.15,meteohub,2013-04-08 23:45:00,
2013-04-08 16:51:00,34.3,39.0,29.74,SSE,167,20.0,41.0,47,0.00,,,0.15,meteohub,2013-04-08 23:51:00,
2013-04-08 16:57:00,34.3,38.5,29.75,SSE,162,15.0,41.0,46,0.00,,,0.15,meteohub,2013-04-08 23:57:00,
2013-04-08 17:02:00,34.3,38.5,29.76,NW,305,19.0,41.0,46,0.00,,,0.15,meteohub,2013-04-09 00:02:00,
2013-04-08 17:07:00,34.3,38.3,29.76,North,8,14.0,37.0,46,0.00,,,0.00,meteohub,2013-04-09 00:07:00,
2013-04-08 17:12:00,34.5,38.1,29.77,NNW,328,20.0,35.0,46,0.00,,,0.00,meteohub,2013-04-09 00:12:00,
2013-04-08 17:18:00,34.5,38.1,29.77,NE,34,15.0,34.0,46,0.00,,,0.00,meteohub,2013-04-09 00:18:00,
2013-04-08 17:23:00,34.5,38.1,29.74,NW,323,22.0,34.0,46,0.00,,,0.00,meteohub,2013-04-09 00:23:00,
2013-04-08 17:28:00,34.2,38.1,29.76,West,259,29.0,36.0,46,0.00,,,0.00,meteohub,2013-04-09 00:28:00,
2013-04-08 17:34:00,34.0,37.9,29.75,SW,225,25.0,36.0,46,0.00,,,0.00,meteohub,2013-04-09 00:34:00,
2013-04-08 17:39:00,34.2,37.9,29.75,WSW,258,20.0,36.0,46,0.00,,,0.00,meteohub,2013-04-09 00:39:00,
2013-04-08 17:45:00,34.2,37.9,29.76,WSW,239,26.0,36.0,46,0.00,,,0.00,meteohub,2013-04-09 00:45:00,
2013-04-08 17:50:00,34.2,38.1,29.76,West,274,22.0,42.0,46,0.00,,,0.00,meteohub,2013-04-09 00:50:00,
2013-04-08 17:55:00,34.2,38.3,29.76,SE,125,19.0,42.0,46,0.00,,,0.00,meteohub,2013-04-09 00:55:00,
2013-04-08 18:03:00,34.3,38.5,29.77,North,359,21.0,42.0,46,0.00,,,0.00,meteohub,2013-04-09 01:03:00,
2013-04-08 18:08:00,34.5,38.7,29.76,SW,229,21.0,39.0,46,0.00,,,0.00,meteohub,2013-04-09 01:08:00,
2013-04-08 18:13:00,34.3,39.4,29.77,East,101,22.0,39.0,47,0.00,,,0.00,meteohub,2013-04-09 01:13:00,
2013-04-08 18:19:00,34.3,39.4,29.77,NNW,335,14.0,36.0,47,0.00,,,0.00,meteohub,2013-04-09 01:19:00,
2013-04-08 18:24:00,34.3,39.4,29.76,SSE,165,23.0,37.0,47,0.00,,,0.00,meteohub,2013-04-09 01:24:00,
2013-04-08 18:29:00,34.2,39.4,29.76,South,184,16.0,37.0,47,0.00,,,0.00,meteohub,2013-04-09 01:29:00,
2013-04-08 18:34:00,34.2,39.4,29.75,WSW,248,21.0,41.0,47,0.00,,,0.00,meteohub,2013-04-09 01:34:00,
2013-04-08 18:40:00,34.3,39.4,29.76,WNW,302,20.0,41.0,47,0.00,,,0.00,meteohub,2013-04-09 01:40:00,
2013-04-08 18:45:00,34.3,39.4,29.77,NW,319,19.0,41.0,47,0.00,,,0.00,meteohub,2013-04-09 01:45:00,
2013-04-08 18:50:00,34.3,38.7,29.77,WSW,252,22.0,38.0,46,0.00,,,0.00,meteohub,2013-04-09 01:50:00,
2013-04-08 18:56:00,34.3,38.7,29.78,NE,49,24.0,38.0,46,0.00,,,0.00,meteohub,2013-04-09 01:56:00,
2013-04-08 19:01:00,34.5,38.7,29.78,WNW,290,18.0,38.0,46,0.00,,,0.00,meteohub,2013-04-09 02:01:00,
2013-04-08 19:06:00,34.5,38.7,29.79,SW,227,18.0,32.0,46,0.00,,,0.00,meteohub,2013-04-09 02:06:00,
2013-04-08 19:11:00,34.5,38.7,29.80,West,273,16.0,32.0,46,0.00,,,0.00,meteohub,2013-04-09 02:11:00,
2013-04-08 19:17:00,34.7,38.7,29.80,ENE,78,16.0,32.0,46,0.00,,,0.00,meteohub,2013-04-09 02:17:00,
2013-04-08 19:22:00,34.7,38.5,29.81,NE,46,13.0,31.0,46,0.00,,,0.00,meteohub,2013-04-09 02:22:00,
2013-04-08 19:27:00,34.5,38.5,29.81,WSW,248,16.0,33.0,46,0.00,,,0.00,meteohub,2013-04-09 02:27:00,
2013-04-08 19:32:00,34.3,38.5,29.81,NNW,347,12.0,33.0,46,0.00,,,0.00,meteohub,2013-04-09 02:32:00,
2013-04-08 19:37:00,34.3,38.3,29.82,NE,50,17.0,29.0,46,0.00,,,0.00,meteohub,2013-04-09 02:37:00,
2013-04-08 19:42:00,34.5,38.3,29.82,NNE,13,22.0,29.0,46,0.00,,,0.00,meteohub,2013-04-09 02:42:00,
2013-04-08 19:48:00,34.7,38.1,29.83,WSW,250,20.0,29.0,46,0.00,,,0.00,meteohub,2013-04-09 02:48:00,
2013-04-08 19:53:00,34.9,38.1,29.83,WNW,290,11.0,29.0,46,0.00,,,0.00,meteohub,2013-04-09 02:53:00,
2013-04-08 19:58:00,34.9,37.9,29.83,WNW,302,28.0,29.0,46,0.00,,,0.00,meteohub,2013-04-09 02:58:00,
2013-04-08 20:04:00,34.7,37.9,29.83,SE,139,13.0,38.0,46,0.00,,,0.00,meteohub,2013-04-09 03:04:00,
2013-04-08 20:09:00,34.7,37.9,29.83,SW,235,26.0,38.0,46,0.00,,,0.00,meteohub,2013-04-09 03:09:00,
2013-04-08 20:15:00,34.7,38.1,29.84,WNW,291,20.0,38.0,46,0.00,,,0.00,meteohub,2013-04-09 03:15:00,
2013-04-08 20:20:00,34.5,38.1,29.85,West,264,21.0,35.0,46,0.00,,,0.00,meteohub,2013-04-09 03:20:00,
2013-04-08 20:25:00,34.5,38.3,29.85,SW,233,20.0,31.0,46,0.00,,,0.00,meteohub,2013-04-09 03:25:00,
2013-04-08 20:31:00,34.5,38.5,29.85,West,267,23.0,31.0,46,0.00,,,0.00,meteohub,2013-04-09 03:31:00,
2013-04-08 20:36:00,34.5,38.7,29.85,SW,217,24.0,30.0,46,0.00,,,0.00,meteohub,2013-04-09 03:36:00,
2013-04-08 20:42:00,34.5,38.7,29.85,NE,36,16.0,33.0,46,0.00,,,0.00,meteohub,2013-04-09 03:42:00,
2013-04-08 20:47:00,34.3,38.7,29.85,NW,316,16.0,33.0,46,0.00,,,0.00,meteohub,2013-04-09 03:47:00,
2013-04-08 20:52:00,34.3,38.8,29.86,North,8,22.0,33.0,46,0.00,,,0.00,meteohub,2013-04-09 03:52:00,
2013-04-08 20:57:00,34.3,38.8,29.86,WSW,253,17.0,28.0,46,0.00,,,0.00,meteohub,2013-04-09 03:57:00,
2013-04-08 21:00:00,34.3,38.8,29.85,NW,314,16.0,28.0,46,0.00,,,0.00,meteohub,2013-04-09 04:00:00,
2013-04-08 21:02:00,34.3,38.7,29.86,NW,316,15.0,26.0,46,0.00,,,0.00,meteohub,2013-04-09 04:02:00,
2013-04-08 21:03:00,34.3,38.8,29.86,NNE,29,15.0,26.0,46,0.00,,,0.00,meteohub,2013-04-09 04:03:00,
2013-04-08 21:08:00,34.3,38.7,29.86,West,273,19.0,26.0,46,0.00,,,0.00,meteohub,2013-04-09 04:08:00,
2013-04-08 21:13:00,34.2,38.7,29.87,ENE,72,13.0,30.0,46,0.00,,,0.00,meteohub,2013-04-09 04:13:00,
2013-04-08 21:20:00,34.2,38.7,29.87,West,280,13.0,30.0,46,0.00,,,0.00,meteohub,2013-04-09 04:20:00,
2013-04-08 21:25:00,34.2,38.7,29.88,WSW,240,22.0,29.0,46,0.00,,,0.00,meteohub,2013-04-09 04:25:00,
2013-04-08 21:30:00,34.3,38.7,29.88,WSW,238,14.0,30.0,46,0.00,,,0.00,meteohub,2013-04-09 04:30:00,
2013-04-08 21:36:00,34.2,38.7,29.89,NW,319,11.0,30.0,46,0.00,,,0.00,meteohub,2013-04-09 04:36:00,
2013-04-08 21:41:00,34.2,38.7,29.89,NW,320,14.0,30.0,46,0.00,,,0.00,meteohub,2013-04-09 04:41:00,
2013-04-08 21:46:00,34.2,38.5,29.89,WSW,238,21.0,29.0,46,0.00,,,0.00,meteohub,2013-04-09 04:46:00,
2013-04-08 21:52:00,34.3,38.5,29.89,ENE,71,17.0,28.0,46,0.00,,,0.00,meteohub,2013-04-09 04:52:00,
2013-04-08 21:57:00,34.3,38.5,29.89,WSW,245,26.0,34.0,46,0.00,,,0.00,meteohub,2013-04-09 04:57:00,
2013-04-08 22:02:00,34.3,38.3,29.89,NNW,345,15.0,34.0,46,0.00,,,0.00,meteohub,2013-04-09 05:02:00,
2013-04-08 22:07:00,34.3,37.8,29.89,North,5,14.0,34.0,45,0.00,,,0.00,meteohub,2013-04-09 05:07:00,
2013-04-08 22:12:00,34.3,37.6,29.90,WSW,249,26.0,30.0,45,0.00,,,0.00,meteohub,2013-04-09 05:12:00,
2013-04-08 22:17:00,34.2,37.6,29.90,WSW,252,16.0,28.0,45,0.00,,,0.00,meteohub,2013-04-09 05:17:00,
2013-04-08 22:23:00,34.2,37.6,29.89,WNW,291,17.0,35.0,45,0.01,,,0.01,meteohub,2013-04-09 05:23:00,
2013-04-08 22:28:00,34.2,37.4,29.89,ENE,75,15.0,35.0,45,0.01,,,0.01,meteohub,2013-04-09 05:28:00,
2013-04-08 22:34:00,34.2,37.4,29.89,NNE,15,11.0,35.0,45,0.01,,,0.01,meteohub,2013-04-09 05:34:00,
2013-04-08 22:40:00,34.2,37.4,29.90,NE,38,15.0,31.0,45,0.01,,,0.01,meteohub,2013-04-09 05:40:00,
2013-04-08 22:45:00,34.3,37.6,29.90,WSW,257,18.0,31.0,45,0.01,,,0.01,meteohub,2013-04-09 05:45:00,
2013-04-08 22:50:00,34.3,37.6,29.90,West,276,18.0,29.0,45,0.01,,,0.01,meteohub,2013-04-09 05:50:00,
2013-04-08 22:55:00,34.3,37.8,29.90,NNE,16,18.0,31.0,45,0.01,,,0.01,meteohub,2013-04-09 05:55:00,
2013-04-08 23:01:00,34.3,38.5,29.91,WNW,296,15.0,31.0,46,0.01,,,0.01,meteohub,2013-04-09 06:01:00,
2013-04-08 23:07:00,34.3,38.7,29.91,SW,224,17.0,31.0,46,0.01,,,0.01,meteohub,2013-04-09 06:07:00,
2013-04-08 23:12:00,34.3,38.7,29.91,WSW,256,14.0,27.0,46,0.01,,,0.01,meteohub,2013-04-09 06:12:00,
2013-04-08 23:17:00,34.3,38.7,29.91,SW,232,16.0,28.0,46,0.01,,,0.01,meteohub,2013-04-09 06:17:00,
2013-04-08 23:22:00,34.5,38.8,29.92,NE,46,11.0,28.0,46,0.00,,,0.01,meteohub,2013-04-09 06:22:00,
2013-04-08 23:27:00,34.5,38.8,29.91,NNE,29,11.0,28.0,46,0.00,,,0.01,meteohub,2013-04-09 06:27:00,
2013-04-08 23:32:00,34.5,38.8,29.92,ENE,63,10.0,28.0,46,0.00,,,0.01,meteohub,2013-04-09 06:32:00,
2013-04-08 23:37:00,34.5,38.8,29.92,West,276,12.0,27.0,46,0.00,,,0.01,meteohub,2013-04-09 06:37:00,
2013-04-08 23:42:00,34.5,38.7,29.92,WSW,257,18.0,25.0,46,0.00,,,0.01,meteohub,2013-04-09 06:42:00,
2013-04-08 23:47:00,34.5,38.7,29.92,NNW,340,13.0,25.0,46,0.00,,,0.01,meteohub,2013-04-09 06:47:00,
2013-04-08 23:53:00,34.5,38.7,29.93,NW,324,6.0,25.0,46,0.00,,,0.01,meteohub,2013-04-09 06:53:00,
2013-04-08 23:58:00,34.5,38.7,29.94,WNW,294,19.0,25.0,46,0.00,,,0.01,meteohub,2013-04-09 06:58:00,